| time (UTC) | temp F | wind direction | speed MPH | gust MPH | rain 1hr in | rain 24hr in | rain mn in | humidity % | barometer mb |
| 20260509201542 | 54 | 0 | 0.0 | 0.0 | 0.00 | 0.00 | 0.00 | 94 | 1005.7 |
| 20260509200044 | 54 | 0 | 0.0 | 0.0 | 0.00 | 0.00 | 0.00 | 92 | 1005.8 |
| 20260509194538 | 54 | 0 | 0.0 | 0.0 | 0.00 | 0.00 | 0.00 | 93 | 1006.1 |
| 20260509193040 | 54 | 0 | 0.0 | 1.0 | 0.00 | 0.00 | 0.00 | 93 | 1006.5 |
| 20260509191537 | 55 | 307 | 0.0 | 1.0 | 0.00 | 0.00 | 0.00 | 90 | 1006.7 |
| 20260509190052 | 56 | 0 | 0.0 | 1.0 | 0.00 | 0.00 | 0.00 | 89 | 1006.7 |
| 20260509184541 | 57 | 334 | 0.0 | 0.0 | 0.00 | 0.00 | 0.00 | 88 | 1007.1 |
| 20260509183036 | 58 | 0 | 0.0 | 0.0 | 0.00 | 0.00 | 0.00 | 88 | 1007.5 |
| 20260509181544 | 57 | 0 | 0.0 | 0.0 | 0.00 | 0.00 | 0.00 | 88 | 1007.6 |
| 20260509180045 | 58 | 0 | 0.0 | 1.0 | 0.00 | 0.00 | 0.00 | 87 | 1007.7 |
| 20260509174541 | 59 | 0 | 0.0 | 4.0 | 0.00 | 0.00 | 0.00 | 86 | 1007.9 |
| 20260509173045 | 58 | 0 | 0.0 | 1.0 | 0.00 | 0.00 | 0.00 | 86 | 1008.1 |
| 20260509171540 | 59 | 0 | 0.0 | 2.0 | 0.00 | 0.00 | 0.00 | 86 | 1008.2 |
| 20260509170040 | 59 | 340 | 0.0 | 5.0 | 0.00 | 0.00 | 0.00 | 85 | 1008.2 |
| 20260509164537 | 60 | 0 | 0.0 | 0.0 | 0.00 | 0.00 | 0.00 | 86 | 1008.2 |
| 20260509163101 | 60 | 0 | 0.0 | 0.0 | 0.00 | 0.00 | 0.00 | 86 | 1008.1 |
| 20260509161544 | 60 | 0 | 0.0 | 1.0 | 0.00 | 0.00 | 0.00 | 84 | 1008.1 |
| 20260509160041 | 61 | 0 | 0.0 | 0.0 | 0.00 | 0.00 | 0.00 | 82 | 1008.0 |
| 20260509154543 | 63 | 0 | 0.0 | 0.0 | 0.00 | 0.00 | 0.00 | 81 | 1007.8 |
| 20260509153037 | 64 | 0 | 0.0 | 1.0 | 0.00 | 0.00 | 0.00 | 80 | 1007.7 |
| 20260509151536 | 65 | 0 | 0.0 | 2.0 | 0.00 | 0.00 | 0.00 | 78 | 1007.7 |
| 20260509150042 | 66 | 92 | 1.0 | 3.0 | 0.00 | 0.00 | 0.00 | 76 | 1007.6 |
| 20260509144543 | 67 | 91 | 1.0 | 4.0 | 0.00 | 0.00 | 0.00 | 73 | 1007.7 |
| 20260509143048 | 67 | 104 | 1.0 | 3.0 | 0.00 | 0.00 | 0.00 | 71 | 1007.6 |
| 20260509141542 | 68 | 49 | 2.0 | 4.0 | 0.00 | 0.00 | 0.00 | 71 | 1007.7 |
| 20260509140047 | 68 | 97 | 2.0 | 4.0 | 0.00 | 0.00 | 0.00 | 71 | 1007.6 |
| 20260509134537 | 68 | 113 | 1.0 | 5.0 | 0.00 | 0.01 | 0.00 | 69 | 1007.7 |
| 20260509133042 | 68 | 103 | 2.0 | 5.0 | 0.00 | 0.01 | 0.00 | 71 | 1007.7 |
| 20260509131543 | 68 | 89 | 2.0 | 5.0 | 0.00 | 0.01 | 0.00 | 69 | 1007.8 |
| 20260509130044 | 67 | 79 | 2.0 | 5.0 | 0.00 | 0.01 | 0.00 | 71 | 1007.8 |
| 20260509124541 | 68 | 86 | 2.0 | 6.0 | 0.00 | 0.01 | 0.00 | 70 | 1007.8 |
| 20260509123048 | 68 | 109 | 2.0 | 5.0 | 0.00 | 0.01 | 0.00 | 69 | 1007.9 |
| 20260509121541 | 68 | 80 | 2.0 | 7.0 | 0.00 | 0.01 | 0.00 | 71 | 1007.9 |
| 20260509120041 | 68 | 76 | 2.0 | 6.0 | 0.00 | 0.01 | 0.00 | 70 | 1007.9 |
| 20260509114542 | 68 | 101 | 2.0 | 5.0 | 0.00 | 0.01 | 0.00 | 70 | 1008.1 |
| 20260509113052 | 69 | 165 | 1.0 | 7.0 | 0.00 | 0.01 | 0.00 | 70 | 1008.3 |
| 20260509111545 | 69 | 151 | 2.0 | 9.0 | 0.00 | 0.01 | 0.00 | 71 | 1008.5 |
| 20260509110037 | 68 | 210 | 3.0 | 7.0 | 0.00 | 0.01 | 0.00 | 69 | 1008.8 |
| 20260509104552 | 69 | 156 | 2.0 | 6.0 | 0.00 | 0.01 | 0.00 | 66 | 1009.0 |
| 20260509103050 | 69 | 192 | 2.0 | 6.0 | 0.00 | 0.01 | 0.00 | 70 | 1009.4 |
| 20260509101540 | 70 | 227 | 2.0 | 5.0 | 0.00 | 0.01 | 0.00 | 69 | 1009.7 |
| 20260509100058 | 69 | 75 | 2.0 | 7.0 | 0.00 | 0.01 | 0.00 | 68 | 1010.0 |
| 20260509094547 | 69 | 204 | 1.0 | 6.0 | 0.00 | 0.01 | 0.00 | 68 | 1010.2 |
| 20260509093045 | 69 | 271 | 2.0 | 10.0 | 0.00 | 0.01 | 0.00 | 62 | 1010.6 |
| 20260509091546 | 68 | 262 | 2.0 | 6.0 | 0.00 | 0.01 | 0.00 | 65 | 1010.7 |
| 20260509090042 | 68 | 330 | 3.0 | 6.0 | 0.00 | 0.01 | 0.00 | 64 | 1011.0 |
| 20260509084541 | 67 | 314 | 1.0 | 5.0 | 0.00 | 0.01 | 0.00 | 71 | 1011.3 |
| 20260509083042 | 66 | 326 | 1.0 | 6.0 | 0.00 | 0.01 | 0.00 | 74 | 1011.5 |
| 20260509081537 | 65 | 312 | 2.0 | 6.0 | 0.00 | 0.01 | 0.00 | 73 | 1011.7 |
| 20260509080049 | 64 | 297 | 1.0 | 4.0 | 0.00 | 0.01 | 0.00 | 78 | 1011.9 |
| 20260509074544 | 62 | 307 | 0.0 | 4.0 | 0.00 | 0.01 | 0.00 | 81 | 1012.2 |
| 20260509073046 | 61 | 350 | 0.0 | 4.0 | 0.00 | 0.01 | 0.00 | 84 | 1012.2 |
| 20260509071542 | 60 | 342 | 1.0 | 3.0 | 0.00 | 0.01 | 0.00 | 84 | 1012.2 |
| 20260509070047 | 59 | 351 | 1.0 | 3.0 | 0.00 | 0.01 | 0.00 | 85 | 1012.4 |
| 20260509064543 | 58 | 0 | 0.0 | 0.0 | 0.00 | 0.02 | 0.00 | 86 | 1012.5 |
| 20260509063042 | 56 | 0 | 0.0 | 1.0 | 0.00 | 0.02 | 0.00 | 89 | 1012.5 |
| 20260509061555 | 54 | 0 | 0.0 | 0.0 | 0.00 | 0.02 | 0.00 | 91 | 1012.4 |
| 20260509060038 | 53 | 333 | 0.0 | 0.0 | 0.00 | 0.02 | 0.00 | 93 | 1012.3 |
| 20260509054549 | 51 | 318 | 1.0 | 3.0 | 0.00 | 0.02 | 0.00 | 94 | 1012.1 |
| 20260509053052 | 50 | 311 | 2.0 | 4.0 | 0.00 | 0.02 | 0.00 | 94 | 1012.1 |
| 20260509051548 | 49 | 321 | 1.0 | 3.0 | 0.00 | 0.02 | 0.00 | 95 | 1012.1 |
| 20260509050041 | 48 | 0 | 0.0 | 2.0 | 0.00 | 0.02 | 0.00 | 93 | 1012.1 |
| 20260509044546 | 49 | 311 | 2.0 | 5.0 | 0.00 | 0.07 | 0.00 | 95 | 1012.2 |
| 20260509043117 | 48 | 281 | 1.0 | 3.0 | 0.00 | 0.07 | 0.00 | 96 | 1012.2 |
| 20260509041543 | 47 | 0 | 0.0 | 0.0 | 0.00 | 0.07 | 0.00 | 95 | 1012.2 |
| 20260509040043 | 48 | 0 | 0.0 | 0.0 | 0.00 | 0.07 | 0.00 | 95 | 1012.3 |
| 20260509034542 | 48 | 0 | 0.0 | 0.0 | 0.00 | 0.09 | 0.00 | 95 | 1012.4 |
| 20260509033037 | 49 | 0 | 0.0 | 3.0 | 0.00 | 0.09 | 0.00 | 94 | 1012.4 |
| 20260509031550 | 49 | 22 | 0.0 | 4.0 | 0.00 | 0.09 | 0.00 | 95 | 1012.4 |
| 20260509030044 | 49 | 0 | 0.0 | 4.0 | 0.00 | 0.09 | 0.00 | 94 | 1012.5 |
| 20260509024542 | 49 | 321 | 2.0 | 4.0 | 0.00 | 0.16 | 0.00 | 95 | 1012.6 |
| 20260509023042 | 49 | 0 | 0.0 | 3.0 | 0.00 | 0.16 | 0.00 | 94 | 1012.5 |
| 20260509021540 | 50 | 0 | 0.0 | 5.0 | 0.00 | 0.16 | 0.00 | 93 | 1012.4 |
| 20260509020039 | 50 | 314 | 2.0 | 4.0 | 0.00 | 0.16 | 0.00 | 94 | 1012.2 |
| 20260509014537 | 49 | 333 | 1.0 | 4.0 | 0.00 | 0.29 | 0.00 | 94 | 1012.4 |
| 20260509013047 | 50 | 304 | 1.0 | 4.0 | 0.00 | 0.29 | 0.00 | 93 | 1012.6 |
| 20260509011542 | 50 | 0 | 0.0 | 3.0 | 0.00 | 0.29 | 0.00 | 92 | 1012.6 |
| 20260509010040 | 51 | 274 | 1.0 | 3.0 | 0.00 | 0.29 | 0.00 | 91 | 1012.9 |
| 20260509004540 | 51 | 286 | 2.0 | 4.0 | 0.00 | 0.51 | 0.00 | 93 | 1013.0 |
| 20260509003040 | 50 | 0 | 0.0 | 0.0 | 0.00 | 0.51 | 0.00 | 94 | 1013.2 |
| 20260509001535 | 50 | 0 | 0.0 | 0.0 | 0.00 | 0.51 | 0.00 | 94 | 1013.3 |
| 20260509000041 | 50 | 0 | 0.0 | 4.0 | 0.00 | 0.51 | 0.00 | 94 | 1013.5 |
| 20260508234545 | 50 | 277 | 0.0 | 3.0 | 0.00 | 0.53 | 0.00 | 94 | 1013.5 |
| 20260508233040 | 50 | 0 | 0.0 | 0.0 | 0.00 | 0.53 | 0.00 | 94 | 1013.5 |
| 20260508231557 | 51 | 0 | 0.0 | 1.0 | 0.00 | 0.53 | 0.00 | 94 | 1013.5 |
| 20260508230046 | 50 | 0 | 1.0 | 4.0 | 0.00 | 0.53 | 0.00 | 94 | 1013.5 |
| 20260508224536 | 51 | 0 | 0.0 | 4.0 | 0.00 | 0.54 | 0.00 | 93 | 1013.5 |
| 20260508223046 | 51 | 311 | 2.0 | 5.0 | 0.00 | 0.54 | 0.00 | 93 | 1013.5 |
| 20260508221541 | 51 | 293 | 1.0 | 5.0 | 0.00 | 0.54 | 0.00 | 93 | 1013.7 |
| 20260508220044 | 52 | 276 | 2.0 | 5.0 | 0.00 | 0.54 | 0.00 | 93 | 1013.8 |
| 20260508214559 | 52 | 297 | 3.0 | 6.0 | 0.00 | 0.58 | 0.54 | 93 | 1013.7 |
| 20260508213041 | 52 | 295 | 3.0 | 6.0 | 0.00 | 0.58 | 0.54 | 93 | 1013.9 |
| 20260508211541 | 52 | 323 | 2.0 | 5.0 | 0.00 | 0.58 | 0.54 | 93 | 1013.9 |
| 20260508210036 | 52 | 292 | 2.0 | 7.0 | 0.00 | 0.58 | 0.54 | 93 | 1014.0 |
| 20260508204541 | 52 | 242 | 3.0 | 7.0 | 0.00 | 0.59 | 0.54 | 93 | 1014.0 |
| 20260508203037 | 52 | 288 | 3.0 | 6.0 | 0.00 | 0.59 | 0.54 | 93 | 1014.0 |